User: anonymous
Location: Unspecified
(0.0000°N, 0.0000°E)
Time: 07:30:34
(UTC+02:00)
Language:

Cosmos 1703 - Orbit

View from above orbital plane
View from above orbital plane
View from above satellite
View from above satellite

Ground track
Ground track

The orbit data is extracted from the following two-line orbital elements,

1 16262U 85108A   14252.70509014  .00003488  00000-0  23901-3 0  5154
2 16262 082.4958 160.5106 0012677 171.6187 188.5769 15.06018293566363
Epoch (UTC): 09 September 2014 16:55:19
Eccentricity: 0.0012677
inclination: 82.4958°
perigee height: 539 km
apogee height: 557 km
right ascension of ascending node: 160.5106°
argument of perigee: 171.6187°
revolutions per day: 15.06018293
mean anomaly at epoch: 188.5769°
orbit number at epoch: 56636

The dashed part of the orbit path shows where the satellite is in the earth's shadow,  

DLR